Location: Enborne
(51.3833°N, 1.3667°W)
Time: 13:31:09
(UTC+00:00)

Cosmos 1844 Rocket - Pass Details

Date: 18 January 2021
Orbit: 826 x 843 km, 71.0° (Epoch: 05 March)

Event Time Altitude Azimuth Distance (km) Brightness Sun altitude
Rises 18:42:37 0° 186° (S) 3,388 6.0 -19.9°
Reaches altitude 10° 18:45:09 10° 179° (S) 2,457 5.2 -20.2°
Maximum altitude 18:50:26 43° 110° (ESE) 1,165 3.0 -21.1°
Enters shadow 18:50:54 42° 96° (E) 1,180 3.0 -21.1°
